Stanton, MN

2:25 AM CST on December 11, 2019 (GMT -0600)
Stanton

Weather History for KSYN - October, 2019

Change the Weather History Date:

Friday, October 25, 2019

  Actual Average (KLVN) Record (KLVN)
Temperature  
Mean Temperature 40 °F -  
Max Temperature 55 °F 55 °F 81 °F (1989)
Min Temperature 24 °F 36 °F 20 °F (1957)
Degree Days  
Heating Degree Days 26    
Moisture  
Dew Point 28 °F    
Average Humidity 67    
Maximum Humidity 94    
Minimum Humidity 37    
Precipitation  
Precipitation 0.00 in - - ()
Sea Level Pressure  
Sea Level Pressure 30.20 in    
Wind  
Wind Speed 6 mph ()    
Max Wind Speed 16 mph    
Max Gust Speed 22 mph    
Visibility 10.0 miles    
Events      
Averages and records for this station are not official NWS values.
T = Trace of Precipitation, MM = Missing Value Source: Averaged Metar Reports

Daily Weather History Graph

Daily Weather History Graph

Search for Another Location

Airport or City:

Astronomy

Oct. 25, 2019 Rise Set
Actual Time 7:39 AM CDT 6:11 PM CDT
Civil Twilight 7:10 AM CDT 6:41 PM CDT
Nautical Twilight 6:36 AM CDT 7:15 PM CDT
Astronomical Twilight 6:02 AM CDT 7:49 PM CDT
Moon 4:12 AM CDT (10/25) 5:23 PM CDT (10/25)
Length of Visible Light 11h 31m
Length of Day
10h 31m
Waning Crescent, 9% of the Moon is Illuminated
Oct 25
Waning Crescent
Oct 27
New
Nov 4
First Quarter
Nov 12
Full
Nov 19
Last Quarter

Hourly Weather History & Observations

Time (CDT) Temp. Windchill Dew Point Humidity Pressure Visibility Wind Dir Wind Speed Gust Speed Precip Events Conditions
12:15 AM 25.0 °F - 23.4 °F 94% 30.34 in 10.0 mi Calm Calm - N/A   Clear
12:16 AM 25.0 °F - 23.4 °F 94% 30.34 in 10.0 mi Calm Calm - N/A   Clear
12:35 AM 25.2 °F 19.5 °F 23.5 °F 94% 30.34 in 10.0 mi SSW 4.6 mph - N/A   Clear
12:36 AM 25.3 °F 18.5 °F 23.7 °F 94% 30.34 in 10.0 mi SSW 5.8 mph - N/A   Clear
12:55 AM 25.2 °F - 23.0 °F 91% 30.34 in 10.0 mi Calm Calm - N/A   Clear
1:15 AM 24.8 °F - 23.4 °F 94% 30.33 in 10.0 mi Calm Calm - N/A   Clear
1:16 AM 24.8 °F 20.5 °F 23.4 °F 94% 30.33 in 10.0 mi SSW 3.5 mph - N/A   Clear
1:35 AM 25.9 °F 20.3 °F 23.9 °F 92% 30.34 in 10.0 mi SW 4.6 mph - N/A   Clear
1:55 AM 25.2 °F - 22.8 °F 91% 30.33 in 10.0 mi Calm Calm - N/A   Clear
2:15 AM 24.8 °F - 23.2 °F 94% 30.33 in 10.0 mi Calm Calm - N/A   Clear
2:16 AM 24.6 °F - 22.8 °F 93% 30.33 in 10.0 mi Calm Calm - N/A   Clear
2:35 AM 24.4 °F 18.6 °F 22.8 °F 94% 30.33 in 10.0 mi SW 4.6 mph - N/A   Clear
2:36 AM 24.6 °F 18.8 °F 22.8 °F 93% 30.33 in 10.0 mi SW 4.6 mph - N/A   Clear
2:55 AM 24.4 °F - 22.6 °F 93% 30.32 in 10.0 mi Calm Calm - N/A   Clear
2:56 AM 24.6 °F - 22.8 °F 93% 30.32 in 10.0 mi Calm Calm - N/A   Clear
3:15 AM 25.3 °F 21.1 °F 23.5 °F 93% 30.32 in 10.0 mi SSW 3.5 mph - N/A   Clear
3:35 AM 27.3 °F 22.0 °F 24.1 °F 88% 30.31 in 10.0 mi SSW 4.6 mph - N/A   Clear
3:55 AM 27.3 °F 22.0 °F 23.9 °F 87% 30.31 in 10.0 mi SSW 4.6 mph - N/A   Clear
3:56 AM 27.3 °F 22.0 °F 24.1 °F 88% 30.30 in 10.0 mi South 4.6 mph - N/A   Clear
4:15 AM 27.5 °F 22.2 °F 23.9 °F 86% 30.30 in 10.0 mi SSW 4.6 mph - N/A   Clear
4:35 AM 28.2 °F 22.0 °F 24.1 °F 84% 30.31 in 10.0 mi SSW 5.8 mph - N/A   Clear
4:55 AM 29.3 °F 24.3 °F 24.8 °F 83% 30.31 in 10.0 mi South 4.6 mph - N/A   Clear
5:15 AM 30.0 °F 23.2 °F 25.0 °F 82% 30.30 in 10.0 mi South 6.9 mph - N/A   Clear
5:35 AM 29.7 °F 24.7 °F 24.8 °F 82% 30.31 in 10.0 mi SSW 4.6 mph - N/A   Clear
5:36 AM 29.7 °F 24.7 °F 24.6 °F 81% 30.31 in 10.0 mi SSW 4.6 mph - N/A   Clear
5:55 AM 29.5 °F 23.4 °F 24.8 °F 83% 30.31 in 10.0 mi South 5.8 mph - N/A   Clear
5:56 AM 29.5 °F 23.4 °F 24.8 °F 83% 30.31 in 10.0 mi South 5.8 mph - N/A   Clear
6:15 AM 30.0 °F 23.2 °F 25.2 °F 82% 30.32 in 10.0 mi South 6.9 mph - N/A   Clear
6:16 AM 30.0 °F 23.2 °F 25.2 °F 82% 30.32 in 10.0 mi South 6.9 mph - N/A   Clear
6:35 AM 30.2 °F 22.6 °F 25.3 °F 82% 30.31 in 10.0 mi South 8.1 mph - N/A   Clear
6:55 AM 30.6 °F 23.8 °F 25.5 °F 82% 30.31 in 10.0 mi South 6.9 mph - N/A   Clear
7:15 AM 30.4 °F 22.9 °F 25.5 °F 82% 30.31 in 10.0 mi South 8.1 mph - N/A   Clear
7:16 AM 30.4 °F 22.9 °F 25.5 °F 82% 30.31 in 10.0 mi South 8.1 mph - N/A   Clear
7:35 AM 30.0 °F 23.2 °F 25.3 °F 83% 30.31 in 10.0 mi South 6.9 mph - N/A   Clear
7:55 AM 30.2 °F 23.4 °F 25.5 °F 83% 30.30 in 10.0 mi South 6.9 mph - N/A   Clear
8:15 AM 30.9 °F 24.3 °F 26.1 °F 82% 30.30 in 10.0 mi South 6.9 mph - N/A   Clear
8:35 AM 32.0 °F 26.4 °F 27.0 °F 82% 30.30 in 10.0 mi South 5.8 mph - N/A   Clear
8:55 AM 33.1 °F 25.5 °F 28.2 °F 82% 30.30 in 10.0 mi South 9.2 mph - N/A   Clear
8:56 AM 33.3 °F 25.7 °F 28.2 °F 82% 30.30 in 10.0 mi South 9.2 mph - N/A   Clear
9:15 AM 34.7 °F 28.1 °F 29.1 °F 80% 30.29 in 10.0 mi South 8.1 mph - N/A   Clear
9:35 AM 36.7 °F 32.0 °F 30.6 °F 78% 30.29 in 10.0 mi SSW 5.8 mph - N/A   Clear
9:55 AM 38.7 °F 32.4 °F 31.5 °F 75% 30.28 in 10.0 mi SSW 9.2 mph - N/A   Clear
10:15 AM 40.6 °F 33.8 °F 31.5 °F 70% 30.28 in 10.0 mi SSW 11.5 mph - N/A   Clear
10:35 AM 42.8 °F 36.2 °F 31.1 °F 63% 30.27 in 10.0 mi SSW 12.7 mph 18.4 mph N/A   Clear
10:55 AM 44.4 °F 38.2 °F 31.3 °F 60% 30.27 in 10.0 mi SSW 12.7 mph - N/A   Clear
10:56 AM 44.6 °F 38.1 °F 31.3 °F 60% 30.27 in 10.0 mi SSW 13.8 mph - N/A   Clear
11:15 AM 45.7 °F 39.1 °F 30.7 °F 56% 30.26 in 10.0 mi SSW 15.0 mph - N/A   Clear
11:35 AM 46.8 °F - 30.4 °F 53% 30.26 in 10.0 mi SSW 16.1 mph - N/A   Clear
11:55 AM 48.0 °F - 30.6 °F 51% 30.25 in 10.0 mi SW 15.0 mph - N/A   Clear
12:15 PM 48.9 °F - 31.1 °F 50% 30.23 in 10.0 mi SSW 15.0 mph 18.4 mph N/A   Clear
12:35 PM 50.0 °F - 30.9 °F 48% 30.22 in 10.0 mi SSW 12.7 mph 17.3 mph N/A   Clear
12:55 PM 50.7 °F - 30.6 °F 46% 30.21 in 10.0 mi SSW 10.4 mph 18.4 mph N/A   Clear
12:56 PM 50.7 °F - 30.6 °F 46% 30.21 in 10.0 mi SSW 9.2 mph 18.4 mph N/A   Clear
1:15 PM 51.4 °F - 30.4 °F 44% 30.19 in 10.0 mi SSW 12.7 mph 20.7 mph N/A   Clear
1:36 PM 52.2 °F - 30.0 °F 43% 30.18 in 10.0 mi SSW 16.1 mph 20.7 mph N/A   Clear
1:55 PM 52.9 °F - 30.4 °F 42% 30.17 in 10.0 mi SSW 16.1 mph 19.6 mph N/A   Clear
1:56 PM 52.9 °F - 30.6 °F 43% 30.17 in 10.0 mi SW 15.0 mph 19.6 mph N/A   Clear
2:15 PM 53.2 °F - 30.6 °F 42% 30.16 in 10.0 mi South 10.4 mph 19.6 mph N/A   Clear
2:16 PM 53.4 °F - 30.6 °F 42% 30.16 in 10.0 mi South 11.5 mph 19.6 mph N/A   Clear
2:35 PM 54.1 °F - 29.7 °F 39% 30.14 in 10.0 mi SSW 12.7 mph - N/A   Clear
3:15 PM 54.9 °F - 28.9 °F 37% 30.12 in 10.0 mi SW 15.0 mph 21.9 mph N/A   Clear
3:35 PM 55.2 °F - 30.0 °F 38% 30.11 in 10.0 mi SSW 13.8 mph 18.4 mph N/A   Clear
3:55 PM 54.9 °F - 29.7 °F 38% 30.10 in 10.0 mi SSW 12.7 mph 17.3 mph N/A   Clear
4:15 PM 54.9 °F - 30.0 °F 39% 30.10 in 10.0 mi SSW 12.7 mph 21.9 mph N/A   Clear
4:35 PM 54.7 °F - 29.8 °F 39% 30.09 in 10.0 mi SSW 11.5 mph 18.4 mph N/A   Clear
4:36 PM 54.7 °F - 29.7 °F 38% 30.09 in 10.0 mi South 10.4 mph 17.3 mph N/A   Clear
4:55 PM 54.3 °F - 30.0 °F 39% 30.08 in 10.0 mi SSW 11.5 mph - N/A   Clear
4:56 PM 54.1 °F - 30.0 °F 40% 30.08 in 10.0 mi SSW 12.7 mph - N/A   Clear
5:15 PM 53.6 °F - 30.2 °F 41% 30.07 in 10.0 mi SSW 11.5 mph 19.6 mph N/A   Clear
5:35 PM 52.9 °F - 30.6 °F 43% 30.08 in 10.0 mi South 11.5 mph 17.3 mph N/A   Clear
5:36 PM 52.9 °F - 30.6 °F 43% 30.08 in 10.0 mi SSW 9.2 mph 17.3 mph N/A   Clear
5:55 PM 51.1 °F - 31.1 °F 46% 30.08 in 10.0 mi SSW 6.9 mph - N/A   Clear
5:56 PM 51.1 °F - 31.1 °F 46% 30.08 in 10.0 mi SSW 8.1 mph - N/A   Clear
6:15 PM 50.0 °F - 30.9 °F 48% 30.08 in 10.0 mi South 8.1 mph - N/A   Clear
6:35 PM 47.1 °F - 31.5 °F 55% 30.08 in 10.0 mi South 6.9 mph - N/A   Clear
6:36 PM 46.9 °F - 31.5 °F 55% 30.08 in 10.0 mi South 6.9 mph - N/A   Clear
6:55 PM 45.1 °F 41.4 °F 31.6 °F 59% 30.08 in 10.0 mi South 6.9 mph - N/A   Clear
6:56 PM 45.1 °F 41.4 °F 31.8 °F 60% 30.08 in 10.0 mi South 6.9 mph - N/A   Clear
7:15 PM 46.0 °F 41.9 °F 32.0 °F 58% 30.08 in 10.0 mi South 8.1 mph - N/A   Clear
7:16 PM 46.0 °F 41.9 °F 32.0 °F 58% 30.08 in 10.0 mi South 8.1 mph - N/A   Clear
7:35 PM 45.5 °F 41.8 °F 32.0 °F 59% 30.08 in 10.0 mi South 6.9 mph - N/A   Clear
7:55 PM 44.6 °F 40.7 °F 32.0 °F 61% 30.08 in 10.0 mi SSW 6.9 mph - N/A   Clear
8:15 PM 44.8 °F 39.9 °F 32.0 °F 61% 30.08 in 10.0 mi South 9.2 mph - N/A   Clear
8:35 PM 44.6 °F 39.7 °F 32.0 °F 61% 30.08 in 10.0 mi South 9.2 mph - N/A   Clear
8:55 PM 44.6 °F 38.8 °F 32.0 °F 61% 30.08 in 10.0 mi South 11.5 mph - N/A   Clear
9:15 PM 44.6 °F 39.2 °F 32.0 °F 61% 30.08 in 10.0 mi South 10.4 mph - N/A   Clear
9:35 PM 44.6 °F 39.2 °F 31.8 °F 61% 30.08 in 10.0 mi South 10.4 mph 17.3 mph N/A   Clear
9:36 PM 44.6 °F 38.8 °F 31.8 °F 61% 30.08 in 10.0 mi South 11.5 mph 17.3 mph N/A   Clear
9:55 PM 44.1 °F 38.1 °F 31.8 °F 62% 30.08 in 10.0 mi South 11.5 mph 16.1 mph N/A   Clear
9:56 PM 44.1 °F 38.1 °F 31.8 °F 62% 30.08 in 10.0 mi South 11.5 mph 16.1 mph N/A   Clear
10:15 PM 43.9 °F 37.9 °F 31.6 °F 62% 30.07 in 10.0 mi South 11.5 mph - N/A   Clear
10:35 PM 43.0 °F 37.2 °F 31.8 °F 65% 30.07 in 10.0 mi South 10.4 mph - N/A   Clear
10:36 PM 43.0 °F 36.8 °F 31.8 °F 65% 30.07 in 10.0 mi South 11.5 mph - N/A   Clear
10:55 PM 42.4 °F 36.1 °F 31.6 °F 66% 30.06 in 10.0 mi South 11.5 mph - N/A   Clear
10:56 PM 42.4 °F 36.1 °F 31.6 °F 66% 30.06 in 10.0 mi South 11.5 mph - N/A   Clear
11:15 PM 42.3 °F 36.3 °F 31.6 °F 66% 30.06 in 10.0 mi South 10.4 mph 16.1 mph N/A   Clear
11:16 PM 42.3 °F 36.3 °F 31.6 °F 66% 30.06 in 10.0 mi South 10.4 mph 16.1 mph N/A   Clear
11:35 PM 42.1 °F 36.1 °F 31.5 °F 66% 30.05 in 10.0 mi South 10.4 mph - N/A   Clear
11:55 PM 41.4 °F 35.2 °F 31.5 °F 68% 30.04 in 10.0 mi South 10.4 mph - N/A   Clear